Preview of NWS' New Version of Forecast
This preview is not operational and should not be used for support decisions.

Terminal Aerodrome Forecast (TAF)

Issued by National Weather Service (NWS)

                            
000
FTUS42 KKEY 240924 AAA
TAFEYW
TAF AMD
KEYW 240924Z 2409/2506 14006KT P6SM FEW020=